TimeEST,TemperatureF,Dew PointF,Humidity,Sea Level PressureIn,VisibilityMPH,Wind Direction,Wind SpeedMPH,Gust SpeedMPH,PrecipitationIn,Events,Conditions,WindDirDegrees,DateUTC
12:53 AM,64.9,64.0,97,30.06,5.0,Calm,Calm,-,N/A,,Mostly Cloudy,0,2014-02-03 05:53:00
1:15 AM,64.0,64.0,100,30.06,1.8,Calm,Calm,-,N/A,,Overcast,0,2014-02-03 06:15:00
1:26 AM,64.9,64.0,97,30.06,3.0,Calm,Calm,-,N/A,,Overcast,0,2014-02-03 06:26:00
1:53 AM,64.9,64.9,100,30.05,8.0,Calm,Calm,-,N/A,,Mostly Cloudy,0,2014-02-03 06:53:00
2:13 AM,64.9,64.0,97,30.05,8.0,Calm,Calm,-,N/A,,Mostly Cloudy,0,2014-02-03 07:13:00
2:53 AM,64.9,64.0,97,30.05,7.0,Calm,Calm,-,N/A,,Mostly Cloudy,0,2014-02-03 07:53:00
3:01 AM,64.9,64.0,97,30.05,6.0,Calm,Calm,-,N/A,,Partly Cloudy,0,2014-02-03 08:01:00
3:53 AM,64.0,64.0,100,30.05,7.0,Calm,Calm,-,N/A,,Partly Cloudy,0,2014-02-03 08:53:00
4:53 AM,64.9,64.0,97,30.05,9.0,Calm,Calm,-,N/A,,Mostly Cloudy,0,2014-02-03 09:53:00
5:06 AM,64.9,64.0,97,30.05,9.0,Calm,Calm,-,N/A,,Mostly Cloudy,0,2014-02-03 10:06:00
5:53 AM,64.9,64.0,97,30.06,10.0,Calm,Calm,-,N/A,,Overcast,0,2014-02-03 10:53:00
6:24 AM,64.0,64.0,100,30.06,8.0,Calm,Calm,-,N/A,,Overcast,0,2014-02-03 11:24:00
6:34 AM,64.0,64.0,100,30.06,7.0,Calm,Calm,-,N/A,,Overcast,0,2014-02-03 11:34:00
6:53 AM,64.0,64.0,100,30.07,5.0,Calm,Calm,-,N/A,,Overcast,0,2014-02-03 11:53:00
7:00 AM,64.0,64.0,100,30.07,5.0,Calm,Calm,-,N/A,,Overcast,0,2014-02-03 12:00:00
7:13 AM,64.0,64.0,100,30.07,6.0,Calm,Calm,-,N/A,,Overcast,0,2014-02-03 12:13:00
7:48 AM,64.4,64.4,100,30.08,-9999.0,North,-9999.0,-,N/A,,Unknown,0,2014-02-03 12:48:00
7:53 AM,64.0,64.0,100,30.08,4.0,Calm,Calm,-,N/A,,Mist,0,2014-02-03 12:53:00
8:04 AM,64.0,63.0,96,30.08,1.8,Calm,Calm,-,N/A,,Mist,0,2014-02-03 13:04:00
8:10 AM,64.0,64.0,100,30.09,0.2,Calm,Calm,-,N/A,Fog,Fog,0,2014-02-03 13:10:00
8:19 AM,64.0,64.0,100,30.09,0.2,Calm,Calm,-,N/A,Fog,Fog,0,2014-02-03 13:19:00
8:53 AM,64.9,64.9,100,30.10,0.2,Calm,Calm,-,N/A,Fog,Fog,0,2014-02-03 13:53:00
9:53 AM,66.0,66.0,100,30.12,0.2,Calm,Calm,-,N/A,Fog,Fog,0,2014-02-03 14:53:00
10:53 AM,69.1,68.0,96,30.12,0.2,South,3.5,-,N/A,Fog,Fog,190,2014-02-03 15:53:00
10:58 AM,69.1,69.1,100,30.12,1.0,SE,3.5,-,N/A,,Mist,140,2014-02-03 15:58:00
11:01 AM,69.1,69.1,100,30.12,3.0,SSE,4.6,-,N/A,,Mostly Cloudy,150,2014-02-03 16:01:00
11:04 AM,70.0,69.1,97,30.12,1.0,SSE,3.5,-,N/A,,Mostly Cloudy,160,2014-02-03 16:04:00
11:16 AM,70.0,69.1,97,30.11,10.0,Calm,Calm,-,N/A,,Mostly Cloudy,0,2014-02-03 16:16:00
11:53 AM,75.0,70.0,84,30.10,10.0,SSE,4.6,-,N/A,,Mostly Cloudy,160,2014-02-03 16:53:00
12:00 PM,73.9,70.0,87,30.09,10.0,SSE,5.8,-,N/A,,Clear,150,2014-02-03 17:00:00
12:53 PM,78.1,70.0,76,30.07,10.0,South,6.9,-,N/A,,Scattered Clouds,180,2014-02-03 17:53:00
1:02 PM,77.0,69.1,76,30.06,10.0,WSW,11.5,-,N/A,,Mostly Cloudy,240,2014-02-03 18:02:00
1:53 PM,77.0,70.0,79,30.04,10.0,WSW,15.0,-,N/A,,Mostly Cloudy,250,2014-02-03 18:53:00
2:09 PM,77.0,70.0,79,30.03,10.0,WSW,11.5,-,N/A,,Scattered Clouds,240,2014-02-03 19:09:00
2:53 PM,77.0,70.0,79,30.03,10.0,SW,10.4,-,N/A,,Clear,230,2014-02-03 19:53:00
3:27 PM,77.0,71.1,82,30.03,10.0,WSW,11.5,-,N/A,,Mostly Cloudy,250,2014-02-03 20:27:00
3:53 PM,75.9,70.0,82,30.03,10.0,WSW,10.4,-,N/A,,Mostly Cloudy,240,2014-02-03 20:53:00
4:40 PM,75.9,70.0,82,30.03,10.0,WSW,10.4,-,N/A,,Scattered Clouds,240,2014-02-03 21:40:00
4:53 PM,75.9,70.0,82,30.03,10.0,WSW,6.9,-,N/A,,Mostly Cloudy,250,2014-02-03 21:53:00
5:28 PM,73.9,70.0,87,30.04,10.0,West,6.9,-,N/A,,Scattered Clouds,270,2014-02-03 22:28:00
5:53 PM,72.0,70.0,93,30.04,10.0,West,6.9,-,N/A,,Partly Cloudy,260,2014-02-03 22:53:00
6:21 PM,71.1,70.0,96,30.05,6.0,SW,4.6,-,N/A,,Mostly Cloudy,230,2014-02-03 23:21:00
6:38 PM,70.0,70.0,100,30.05,0.8,WSW,5.8,-,N/A,,Overcast,250,2014-02-03 23:38:00
6:46 PM,70.0,70.0,100,30.05,0.8,West,5.8,-,N/A,,Overcast,260,2014-02-03 23:46:00
6:53 PM,70.0,70.0,100,30.05,0.8,West,4.6,-,N/A,,Overcast,270,2014-02-03 23:53:00
7:00 PM,70.0,70.0,100,30.05,5.0,West,4.6,-,N/A,,Overcast,270,2014-02-04 00:00:00
7:12 PM,70.0,70.0,100,30.05,1.5,WNW,5.8,-,N/A,,Overcast,300,2014-02-04 00:12:00
7:20 PM,70.0,70.0,100,30.05,0.5,WNW,3.5,-,N/A,Fog,Fog,300,2014-02-04 00:20:00
7:53 PM,69.1,69.1,100,30.06,0.5,WNW,4.6,-,N/A,Fog,Fog,290,2014-02-04 00:53:00
8:48 PM,69.8,69.8,100,30.07,0.2,NW,3.5,-,N/A,Fog,Fog,320,2014-02-04 01:48:00
8:53 PM,69.1,69.1,100,30.07,0.5,Calm,Calm,-,N/A,Fog,Fog,0,2014-02-04 01:53:00
9:07 PM,69.1,69.1,100,30.07,0.2,Calm,Calm,-,N/A,Fog,Fog,0,2014-02-04 02:07:00
9:53 PM,68.0,68.0,100,30.08,0.2,North,4.6,-,N/A,Fog,Fog,360,2014-02-04 02:53:00
10:53 PM,68.0,68.0,100,30.09,0.2,NNE,3.5,-,N/A,Fog,Fog,30,2014-02-04 03:53:00
11:53 PM,66.9,66.9,100,30.08,0.2,Calm,Calm,-,N/A,Fog,Fog,0,2014-02-04 04:53:00